Meteo Giornale » Osservazioni meteo Francia » Parigi-Orly

ore: 08:30 - Osservazioni Meteo Parigi-Orly
Lat. 48° 44' N Lon. 2° 24' E Alt. 89 metri s.l.m.

sereno Europe/Paris

7 °C

Sereno

Temp. 24 Ore

4 °C

8 °C

Sud

13 Km/h

Dew point 0 °C

Umidità 60 %

Visibilità  10 Km

Il sole sorge alle ore 08:31

Il sole tramonta alle ore 17:31

Data e Ora Cielo e Fenomeni T °C DP °C Um. % Pres. hPa Vis. km Vento km/h
Oggi h: 08:30 sereno Sereno 7 0 60 1002 10 S 13
Oggi h: 08:00 sereno Sereno 8 0 56 1003 10 S 13
Oggi h: 07:00 sereno Sereno 8 0 56 1003 10 S 11.1
Oggi h: 06:30 sereno Sereno 7 1 65 1003 10 S 11.1
Oggi h: 06:00 sereno Sereno 7 1 65 1003 10 S/SE 13
Oggi h: 05:30 sereno Sereno 7 1 65 1004 10 S 7.4
Oggi h: 05:00 sereno Sereno 7 1 65 1005 10 N 5.5
Oggi h: 04:30 sereno Sereno 7 2 70 1005 10 S 11.1
Oggi h: 04:00 sereno Sereno 7 2 70 1006 10 S 11.1
Oggi h: 03:00 sereno Sereno 7 2 70 1006 10 S 14.8
Oggi h: 02:30 sereno Sereno 6 2 75 1006 10 S 14.8
Oggi h: 02:00 sereno Sereno 6 2 75 1007 10 S 11.1
Oggi h: 01:30 sereno Sereno 7 3 75 1007 10 S/SO 13
Oggi h: 01:00 sereno Sereno 7 3 75 1008 10 S/SO 14.8
Oggi h: 00:30 sereno Sereno 7 3 75 1008 10 S 18.5
Oggi h: 00:00 sereno Sereno 7 3 75 1008 10 S/SO 14.8
Ieri h: 23:30 sereno Sereno 6 3 81 1008 10 S/SO 16.7
Ieri h: 23:00 sereno Sereno 6 3 81 1009 10 S/SO 16.7
Ieri h: 22:30 sereno Sereno 6 3 81 1009 10 S/SO 14.8
Ieri h: 22:00 sereno Sereno 6 3 81 1010 10 S 11.1
Ieri h: 21:30 sereno Sereno 6 3 81 1010 10 S 7.4
Ieri h: 21:00 sereno Sereno 5 3 86 1010 10 S 9.3
Ieri h: 20:30 sereno Sereno 5 3 86 1010 10 S 9.3
Ieri h: 20:00 sereno Sereno 5 3 86 1011 10 S 7.4
Ieri h: 19:30 sereno Sereno 5 3 86 1011 10 S/SO 7.4
Ieri h: 19:00 sereno Sereno 5 3 86 1011 10 S/SE 7.4
Ieri h: 18:30 sereno Sereno 6 3 81 1012 10 S 7.4
Ieri h: 18:00 sereno Sereno 6 3 81 1012 10 S/SO 13
Ieri h: 17:30 nuvoloso Nuvoloso 6 4 86 1013 10 SO 20.3
Ieri h: 17:00 molto_nuvoloso Molto Nuvoloso 7 4 81 1013 10 S/SO 22.2
Ieri h: 16:00 molto_nuvoloso Molto Nuvoloso 7 4 81 1013 10 S/SO 22.2
Ieri h: 15:30 molto_nuvoloso Molto Nuvoloso 7 3 75 1013 10 S/SO 25.9
Ieri h: 15:00 molto_nuvoloso Molto Nuvoloso 7 3 75 1014 10 S/SO 24
Ieri h: 14:30 molto_nuvoloso Molto Nuvoloso 7 3 75 1014 10 O/SO 25.9
Ieri h: 13:30 molto_nuvoloso Molto Nuvoloso 7 4 81 1015 10 SO 31.5
Ieri h: 13:00 coperto Coperto 6 4 86 1015 10 SO 29.6
Ieri h: 12:00 coperto Coperto 5 3 86 1016 10 S/SO 22.2
Ieri h: 11:30 coperto Coperto 4 3 93 1016 10 SO 22.2
Ieri h: 11:00 coperto_pioggia Pioggia Debole Foschia 4 3 93 1017 4 SO 18.5
Ieri h: 10:30 coperto_pioggia Pioggia Debole 4 3 93 1016 10 S/SO 24
Ieri h: 10:00 coperto_pioggia Pioggia Debole 4 3 93 1016 6 S/SO 24
Ieri h: 09:30 coperto_pioggia Pioggia Debole Foschia 4 4 100 1016 5 S/SO 20.3
Ieri h: 09:00 coperto_pioggia Pioggia Debole Foschia 4 3 93 1016 4 S/SO 22.2
Ieri h: 08:30 coperto_pioggia Pioviggine Leggera Foschia 4 3 93 1016 3 S/SO 24
Ieri h: 08:00 coperto Coperto 4 2 86 1017 10 S/SO 24